Terug naar catalogus

THORAD AGENA D DEB

ActiefLEO
NORAD 5519·DEBRIS·🇺🇸 United States

Gelanceerd Sep 30, 1969 vanaf Vandenberg Space Force Base

Loading…

Volgende Passages (komende 24 uur)

TLE

VersSource: Space-Track

Epoch: Sep 14, 2026, 01:29 UTC

1 05519U 69082HY  26257.06231541  .00000691  00000-0  21655-3 0  9997
2 05519  70.0536 129.9849 0043914  91.1437 269.4726 14.44132463963928

Volg THORAD AGENA D DEB in realtime met AllMySat

Download on the App Store